Location: Lhota
(50.0887°N, 14.0116°E)
Time: 21:08:40
(UTC+00:00)

Cosmos 2112 Rocket - Pass Details

Date: 19 May 2025
Orbit: 753 x 782 km, 74.0° (Epoch: 15 June)

Event Time Altitude Azimuth Distance (km) Brightness Sun altitude
Exits shadow 23:41:15 38° 203° (SSW) 1,168 4.4 -19.3°
Maximum altitude 23:43:22 89° 296° (WNW) 774 3.9 -19.3°
Drops below altitude 10° 23:48:37 10° 24° (NNE) 2,307 7.7 -19.1°
Sets 23:50:59 0° 25° (NNE) 3,233 8.8 -19.0°
